User: anonymous   Login
Location: Owatonna
(44.0840°N, 93.2260°W)
Time: 16:47:45
(UTC-06:00)
Language:

Cosmos 1500 Rocket - Orbit

View from above orbital plane
View from above orbital plane
View from above satellite
View from above satellite

Ground track
Ground track

The orbit data is extracted from the following two-line orbital elements,

1 14373U 83099B   17057.89427324  .00000119  00000-0  11479-4 0  9993
2 14373  82.5439 347.6203 0018997 227.8430 196.2289 14.83662578804522
Epoch (UTC): 26 February 2017 21:27:45
Eccentricity: 0.0018997
inclination: 82.5439°
perigee height: 604 km
apogee height: 631 km
right ascension of ascending node: 347.6203°
argument of perigee: 227.8430°
revolutions per day: 14.83662578
mean anomaly at epoch: 196.2289°
orbit number at epoch: 80452

The dashed part of the orbit path shows where the satellite is in the earth's shadow,  

DLR